User: anonymous   Login
Location: Unspecified
(0.0000°N, 0.0000°E)
Time: 08:33:44
(UTC+00:00)
Language:

TRS 6 - Orbit

View from above orbital plane
View from above orbital plane
View from above satellite
View from above satellite

Ground track
Ground track

The orbit data is extracted from the following two-line orbital elements,

1   608U 63014C   18262.51152218 -.00000008 +00000-0 -49670-2 0  9990
2   608 087.3134 103.4048 0063191 040.7819 319.7742 08.65285652748909
Epoch (UTC): 19 September 2018 12:16:35
Eccentricity: 0.0063191
inclination: 87.3134°
perigee height: 3580 km
apogee height: 3707 km
right ascension of ascending node: 103.4048°
argument of perigee: 40.7819°
revolutions per day: 8.65285652
mean anomaly at epoch: 319.7742°
orbit number at epoch: 74890

The dashed part of the orbit path shows where the satellite is in the earth's shadow,  

DLR